Time,TemperatureF,DewpointF,PressureIn,WindDirection,WindDirectionDegrees,WindSpeedMPH,WindSpeedGustMPH,Humidity,HourlyPrecipIn,Conditions,Clouds,dailyrainin,SoftwareType,DateUTC
2013-05-12 00:08:00,58.4,42.0,29.94,South,180,0.0,0.0,54,0.00,,,0.00,weatherlink.com 1.10,2013-05-12 06:08:00,
2013-05-12 00:23:00,58.0,41.0,29.94,WNW,285,0.0,0.0,53,0.00,,,0.00,weatherlink.com 1.10,2013-05-12 06:23:00,
2013-05-12 00:38:00,57.3,41.0,29.95,WNW,285,0.0,2.0,55,0.00,,,0.00,weatherlink.com 1.10,2013-05-12 06:38:00,
2013-05-12 00:53:00,57.1,41.0,29.95,WNW,285,0.0,0.0,55,0.00,,,0.00,weatherlink.com 1.10,2013-05-12 06:53:00,
2013-05-12 01:08:00,56.4,41.0,29.95,SSW,210,0.0,1.0,56,0.00,,,0.00,weatherlink.com 1.10,2013-05-12 07:08:00,
2013-05-12 01:23:00,55.3,41.0,29.95,WNW,299,1.0,2.0,59,0.00,,,0.00,weatherlink.com 1.10,2013-05-12 07:23:00,
2013-05-12 01:38:00,54.8,41.0,29.95,NW,320,0.0,2.0,60,0.00,,,0.00,weatherlink.com 1.10,2013-05-12 07:38:00,
2013-05-12 01:53:00,55.0,41.0,29.95,NW,310,0.0,3.0,59,0.00,,,0.00,weatherlink.com 1.10,2013-05-12 07:53:00,
2013-05-12 02:08:00,54.3,41.0,29.95,NW,312,0.0,0.0,61,0.00,,,0.00,weatherlink.com 1.10,2013-05-12 08:08:00,
2013-05-12 02:23:00,53.9,41.0,29.95,SW,217,0.0,0.0,62,0.00,,,0.00,weatherlink.com 1.10,2013-05-12 08:23:00,
2013-05-12 02:39:00,52.7,41.0,29.94,SSE,150,0.0,2.0,65,0.00,,,0.00,weatherlink.com 1.10,2013-05-12 08:39:00,
2013-05-12 02:54:00,52.3,41.0,29.94,NW,323,0.0,1.0,65,0.00,,,0.00,weatherlink.com 1.10,2013-05-12 08:54:00,
2013-05-12 03:09:00,52.2,41.0,29.94,NW,319,0.0,0.0,65,0.00,,,0.00,weatherlink.com 1.10,2013-05-12 09:09:00,
2013-05-12 03:24:00,51.6,41.0,29.93,NW,319,0.0,0.0,67,0.00,,,0.00,weatherlink.com 1.10,2013-05-12 09:24:00,
2013-05-12 03:39:00,50.9,41.0,29.93,NW,318,0.0,0.0,68,0.00,,,0.00,weatherlink.com 1.10,2013-05-12 09:39:00,
2013-05-12 03:54:00,50.7,41.0,29.93,NW,319,0.0,0.0,69,0.00,,,0.00,weatherlink.com 1.10,2013-05-12 09:54:00,
2013-05-12 04:09:00,51.0,41.0,29.93,SW,221,0.0,0.0,68,0.00,,,0.00,weatherlink.com 1.10,2013-05-12 10:09:00,
2013-05-12 04:24:00,50.5,41.0,29.93,NW,325,0.0,2.0,70,0.00,,,0.00,weatherlink.com 1.10,2013-05-12 10:24:00,
2013-05-12 04:39:00,50.0,41.0,29.93,WNW,292,0.0,1.0,71,0.00,,,0.00,weatherlink.com 1.10,2013-05-12 10:39:00,
2013-05-12 04:54:00,51.5,41.0,29.93,West,269,0.0,0.0,68,0.00,,,0.00,weatherlink.com 1.10,2013-05-12 10:54:00,
2013-05-12 05:09:00,52.6,42.0,29.93,WSW,242,1.0,3.0,67,0.00,,,0.00,weatherlink.com 1.10,2013-05-12 11:09:00,
2013-05-12 05:24:00,53.2,42.0,29.93,SSE,154,0.0,5.0,66,0.00,,,0.00,weatherlink.com 1.10,2013-05-12 11:24:00,
2013-05-12 05:39:00,56.2,41.0,29.92,South,183,0.0,7.0,58,0.00,,,0.00,weatherlink.com 1.10,2013-05-12 11:39:00,
2013-05-12 05:54:00,58.6,42.0,29.92,SE,128,0.0,9.0,54,0.00,,,0.00,weatherlink.com 1.10,2013-05-12 11:54:00,
2013-05-12 06:09:00,60.4,41.0,29.92,WNW,300,3.0,10.0,50,0.00,,,0.00,weatherlink.com 1.10,2013-05-12 12:09:00,
2013-05-12 06:24:00,61.0,41.0,29.91,SSE,164,4.0,9.0,48,0.00,,,0.00,weatherlink.com 1.10,2013-05-12 12:24:00,
2013-05-12 06:39:00,59.6,43.0,29.91,West,279,0.0,4.0,54,0.00,,,0.00,weatherlink.com 1.10,2013-05-12 12:39:00,
2013-05-12 06:54:00,58.6,42.0,29.92,SW,227,1.0,3.0,54,0.00,,,0.00,weatherlink.com 1.10,2013-05-12 12:54:00,
2013-05-12 07:09:00,60.1,43.0,29.91,SSE,156,2.0,5.0,53,0.00,,,0.00,weatherlink.com 1.10,2013-05-12 13:09:00,
2013-05-12 07:24:00,63.0,42.0,29.91,SSE,153,4.0,12.0,46,0.00,,,0.00,weatherlink.com 1.10,2013-05-12 13:24:00,
2013-05-12 07:39:00,65.3,43.0,29.92,SSE,160,4.0,15.0,45,0.00,,,0.00,weatherlink.com 1.10,2013-05-12 13:39:00,
2013-05-12 07:54:00,65.9,43.0,29.92,SE,133,3.0,12.0,43,0.00,,,0.00,weatherlink.com 1.10,2013-05-12 13:54:00,
2013-05-12 08:09:00,66.4,42.0,29.92,SSE,150,4.0,14.0,42,0.00,,,0.00,weatherlink.com 1.10,2013-05-12 14:09:00,
2013-05-12 08:24:00,68.3,42.0,29.91,SE,142,7.0,14.0,39,0.00,,,0.00,weatherlink.com 1.10,2013-05-12 14:24:00,
2013-05-12 08:39:00,68.9,42.0,29.92,SE,145,8.0,19.0,38,0.00,,,0.00,weatherlink.com 1.10,2013-05-12 14:39:00,
2013-05-12 08:54:00,68.7,43.0,29.91,SE,132,8.0,17.0,39,0.00,,,0.00,weatherlink.com 1.10,2013-05-12 14:54:00,
2013-05-12 09:09:00,69.5,43.0,29.91,ESE,121,5.0,17.0,39,0.00,,,0.00,weatherlink.com 1.10,2013-05-12 15:09:00,
2013-05-12 09:24:00,70.2,42.0,29.90,SE,129,10.0,19.0,36,0.00,,,0.00,weatherlink.com 1.10,2013-05-12 15:24:00,
2013-05-12 09:39:00,69.8,42.0,29.91,SE,135,10.0,15.0,36,0.00,,,0.00,weatherlink.com 1.10,2013-05-12 15:39:00,
2013-05-12 09:54:00,70.0,42.0,29.91,SE,139,12.0,16.0,36,0.00,,,0.00,weatherlink.com 1.10,2013-05-12 15:54:00,
2013-05-12 10:09:00,71.2,43.0,29.90,SE,130,9.0,17.0,36,0.00,,,0.00,weatherlink.com 1.10,2013-05-12 16:09:00,
2013-05-12 10:25:00,71.9,42.0,29.89,SE,144,10.0,20.0,34,0.00,,,0.00,weatherlink.com 1.10,2013-05-12 16:25:00,
2013-05-12 10:40:00,73.5,43.0,29.88,ESE,115,11.0,17.0,34,0.00,,,0.00,weatherlink.com 1.10,2013-05-12 16:40:00,
2013-05-12 10:55:00,75.2,43.0,29.88,SE,143,10.0,18.0,32,0.00,,,0.00,weatherlink.com 1.10,2013-05-12 16:55:00,
2013-05-12 11:10:00,77.3,44.0,29.87,SSE,150,5.0,18.0,30,0.00,,,0.00,weatherlink.com 1.10,2013-05-12 17:10:00,
2013-05-12 11:25:00,78.2,42.0,29.87,SSE,150,7.0,15.0,28,0.00,,,0.00,weatherlink.com 1.10,2013-05-12 17:25:00,
2013-05-12 11:40:00,78.6,42.0,29.87,WSW,255,6.0,12.0,27,0.00,,,0.00,weatherlink.com 1.10,2013-05-12 17:40:00,
2013-05-12 11:55:00,78.2,41.0,29.87,WSW,257,5.0,17.0,26,0.00,,,0.00,weatherlink.com 1.10,2013-05-12 17:55:00,
2013-05-12 12:10:00,78.4,41.0,29.87,SW,225,9.0,15.0,26,0.00,,,0.00,weatherlink.com 1.10,2013-05-12 18:10:00,
2013-05-12 12:25:00,78.2,42.0,29.86,WSW,243,7.0,13.0,28,0.00,,,0.00,weatherlink.com 1.10,2013-05-12 18:25:00,
2013-05-12 12:40:00,77.1,40.0,29.86,WSW,239,8.0,14.0,26,0.00,,,0.00,weatherlink.com 1.10,2013-05-12 18:40:00,
2013-05-12 12:55:00,76.8,40.0,29.86,WSW,238,6.0,9.0,27,0.00,,,0.00,weatherlink.com 1.10,2013-05-12 18:55:00,
2013-05-12 13:10:00,76.2,42.0,29.85,WSW,252,4.0,8.0,29,0.00,,,0.00,weatherlink.com 1.10,2013-05-12 19:10:00,
2013-05-12 13:25:00,76.0,41.0,29.85,South,186,1.0,5.0,29,0.00,,,0.00,weatherlink.com 1.10,2013-05-12 19:25:00,
2013-05-12 13:40:00,76.0,43.0,29.84,SSE,155,1.0,6.0,31,0.00,,,0.00,weatherlink.com 1.10,2013-05-12 19:40:00,
2013-05-12 13:55:00,76.1,43.0,29.83,SE,144,3.0,9.0,31,0.00,,,0.00,weatherlink.com 1.10,2013-05-12 19:55:00,
2013-05-12 14:10:00,76.2,45.0,29.82,SE,126,1.0,7.0,33,0.00,,,0.00,weatherlink.com 1.10,2013-05-12 20:10:00,
2013-05-12 14:25:00,76.7,44.0,29.81,SE,144,6.0,11.0,31,0.00,,,0.00,weatherlink.com 1.10,2013-05-12 20:25:00,
2013-05-12 14:40:00,76.8,45.0,29.80,SSE,163,6.0,8.0,32,0.00,,,0.00,weatherlink.com 1.10,2013-05-12 20:40:00,
2013-05-12 14:55:00,77.5,44.0,29.79,SSE,164,4.0,9.0,30,0.00,,,0.00,weatherlink.com 1.10,2013-05-12 20:55:00,
2013-05-12 15:10:00,78.0,43.0,29.78,SSE,155,6.0,13.0,29,0.00,,,0.00,weatherlink.com 1.10,2013-05-12 21:10:00,
2013-05-12 15:25:00,78.9,45.0,29.77,ESE,121,5.0,13.0,30,0.00,,,0.00,weatherlink.com 1.10,2013-05-12 21:25:00,
2013-05-12 15:40:00,79.9,44.0,29.76,ESE,123,5.0,10.0,28,0.00,,,0.00,weatherlink.com 1.10,2013-05-12 21:40:00,
2013-05-12 15:55:00,81.4,45.0,29.75,SE,143,4.0,9.0,28,0.00,,,0.00,weatherlink.com 1.10,2013-05-12 21:55:00,
2013-05-12 16:10:00,81.2,46.0,29.75,SSE,168,1.0,9.0,29,0.00,,,0.00,weatherlink.com 1.10,2013-05-12 22:10:00,
2013-05-12 16:25:00,81.1,44.0,29.73,SW,219,1.0,4.0,27,0.00,,,0.00,weatherlink.com 1.10,2013-05-12 22:25:00,
2013-05-12 16:40:00,82.2,44.0,29.73,SSE,157,5.0,7.0,26,0.00,,,0.00,weatherlink.com 1.10,2013-05-12 22:40:00,
2013-05-12 16:55:00,82.2,43.0,29.73,SE,126,2.0,5.0,25,0.00,,,0.00,weatherlink.com 1.10,2013-05-12 22:55:00,
2013-05-12 17:11:00,83.6,44.0,29.72,West,278,3.0,9.0,25,0.00,,,0.00,weatherlink.com 1.10,2013-05-12 23:11:00,
2013-05-12 17:26:00,85.4,41.0,29.71,West,277,10.0,19.0,21,0.00,,,0.00,weatherlink.com 1.10,2013-05-12 23:26:00,
2013-05-12 17:41:00,85.7,43.0,29.71,WSW,257,5.0,14.0,22,0.00,,,0.00,weatherlink.com 1.10,2013-05-12 23:41:00,
2013-05-12 17:56:00,85.6,40.0,29.71,West,274,8.0,19.0,20,0.00,,,0.00,weatherlink.com 1.10,2013-05-12 23:56:00,
2013-05-12 18:11:00,84.6,41.0,29.71,WNW,303,12.0,17.0,21,0.00,,,0.00,weatherlink.com 1.10,2013-05-13 00:11:00,
2013-05-12 18:26:00,84.5,42.0,29.71,WNW,285,9.0,24.0,22,0.00,,,0.00,weatherlink.com 1.10,2013-05-13 00:26:00,
2013-05-12 18:41:00,84.3,40.0,29.70,West,271,7.0,19.0,21,0.00,,,0.00,weatherlink.com 1.10,2013-05-13 00:41:00,
2013-05-12 18:56:00,84.0,43.0,29.70,West,277,6.0,13.0,24,0.00,,,0.00,weatherlink.com 1.10,2013-05-13 00:56:00,
2013-05-12 19:11:00,83.0,40.0,29.70,WNW,287,15.0,20.0,22,0.00,,,0.00,weatherlink.com 1.10,2013-05-13 01:11:00,
2013-05-12 19:26:00,81.6,40.0,29.70,WNW,287,15.0,20.0,23,0.00,,,0.00,weatherlink.com 1.10,2013-05-13 01:26:00,
2013-05-12 19:41:00,81.8,42.0,29.70,WNW,288,9.0,19.0,24,0.00,,,0.00,weatherlink.com 1.10,2013-05-13 01:41:00,
2013-05-12 19:56:00,81.1,42.0,29.71,NW,304,10.0,17.0,25,0.00,,,0.00,weatherlink.com 1.10,2013-05-13 01:56:00,
2013-05-12 20:11:00,80.6,43.0,29.72,WSW,248,7.0,23.0,26,0.00,,,0.00,weatherlink.com 1.10,2013-05-13 02:11:00,
2013-05-12 20:26:00,79.5,43.0,29.72,NW,311,11.0,19.0,27,0.00,,,0.00,weatherlink.com 1.10,2013-05-13 02:26:00,
2013-05-12 20:41:00,78.4,42.0,29.73,WSW,251,6.0,13.0,27,0.00,,,0.00,weatherlink.com 1.10,2013-05-13 02:41:00,
2013-05-12 20:56:00,78.3,41.0,29.73,WNW,298,5.0,20.0,26,0.00,,,0.00,weatherlink.com 1.10,2013-05-13 02:56:00,
2013-05-12 21:11:00,77.8,39.0,29.74,WNW,298,6.0,17.0,25,0.00,,,0.00,weatherlink.com 1.10,2013-05-13 03:11:00,
2013-05-12 21:26:00,76.5,40.0,29.74,South,171,0.0,12.0,27,0.00,,,0.00,weatherlink.com 1.10,2013-05-13 03:26:00,
2013-05-12 21:41:00,75.0,40.0,29.75,WSW,246,0.0,1.0,28,0.00,,,0.00,weatherlink.com 1.10,2013-05-13 03:41:00,
2013-05-12 21:56:00,74.9,40.0,29.75,West,281,6.0,11.0,28,0.00,,,0.00,weatherlink.com 1.10,2013-05-13 03:56:00,
2013-05-12 22:11:00,75.1,40.0,29.75,WSW,239,0.0,8.0,28,0.00,,,0.00,weatherlink.com 1.10,2013-05-13 04:11:00,
2013-05-12 22:26:00,73.6,41.0,29.75,WSW,258,0.0,1.0,31,0.00,,,0.00,weatherlink.com 1.10,2013-05-13 04:26:00,
2013-05-12 22:41:00,72.3,41.0,29.76,WSW,241,1.0,1.0,32,0.00,,,0.00,weatherlink.com 1.10,2013-05-13 04:41:00,
2013-05-12 22:56:00,72.1,43.0,29.76,WSW,245,1.0,2.0,35,0.00,,,0.00,weatherlink.com 1.10,2013-05-13 04:56:00,
2013-05-12 23:11:00,72.5,42.0,29.76,West,266,5.0,10.0,34,0.00,,,0.00,weatherlink.com 1.10,2013-05-13 05:11:00,
2013-05-12 23:26:00,73.4,43.0,29.76,WNW,288,1.0,11.0,33,0.00,,,0.00,weatherlink.com 1.10,2013-05-13 05:26:00,
2013-05-12 23:41:00,73.1,43.0,29.76,WSW,250,0.0,10.0,34,0.00,,,0.00,weatherlink.com 1.10,2013-05-13 05:41:00,
2013-05-12 23:56:00,71.5,42.0,29.76,WSW,247,0.0,11.0,35,0.00,,,0.00,weatherlink.com 1.10,2013-05-13 05:56:00,